HST
1 20580U 90037B   23274.76061147  .00006900  00000-0  35767-3 0  9990
2 20580  28.4691 278.4035 0002682  97.8189  73.0697 15.14228913637628
ISS (ZARYA)
1 25544U 98067A   23275.40916667  .00000938  00000-0  24690-4 0  9993
2 25544  51.6389 157.4439 0005156  64.5744 278.1794 15.49680371418414
CXO
1 25867U 99040B   23276.36998489  .00000879  00000-0  00000-0 0  9990
2 25867  37.3734 183.0155 9048966 273.7242   0.3243  0.37809910 13596